User: anonymous   Login
Location: Asheville, NC
(35.6000°N, 82.5500°W)
Time: 00:25:36
(UTC-04:00)
Language:

AO-7 - Orbit

View from above orbital plane
View from above orbital plane
View from above satellite
View from above satellite

Ground track
Ground track

The orbit data is extracted from the following two-line orbital elements,

1 07530U 74089B   18171.45860523 -.00000027  00000-0  11057-3 0  9991
2 07530 101.6869 138.7297 0011971 331.2873 146.2009 12.53633074995000
Epoch (UTC): 20 June 2018 11:00:23
Eccentricity: 0.0011971
inclination: 101.6869°
perigee height: 1440 km
apogee height: 1459 km
right ascension of ascending node: 138.7297°
argument of perigee: 331.2873°
revolutions per day: 12.53633074
mean anomaly at epoch: 146.2009°
orbit number at epoch: 99500

The dashed part of the orbit path shows where the satellite is in the earth's shadow,  

DLR